Temperature
11 11 11 11 11 11 12 12 12 11 11 11 11 11 11 11 11 11 11 11 11 11 11 11 11 11 11 11 11 11 11 11 11 10 10 10 10 10 10 10 10 10 10
11 11 11 11 11 11 11 11 11 11 11 11 11 11 11 11 11 11 11 11 11 11 11 11 11 11 11 11 11 10 10 10 10 10 10 10 10 10 10 10 10 10 9
11 11 11 11 11 11 11 11 11 11 10 10 10 10 10 10 10 10 10 11 11 11 11 11 11 11 10 10 10 10 10 10 10 10 10 10 10 10 10 9 9 9 9
10 10 10 10 10 10 10 10 10 10 10 10 10 10 10 10 10 10 10 10 10 11 11 11 10 10 10 10 10 10 10 10 10 10 10 9 10 10 9 9 9 9 9
10 10 10 10 10 10 10 10 10 10 10 10 10 10 10 10 10 10 10 10 10 10 10 10 10 10 10 10 10 10 10 10 9 9 9 9 9 9 9 9 9 9 8
9 9 9 10 10 10 9 9 9 9 9 9 9 9 9 9 9 9 10 10 10 10 10 10 10 10 10 10 9 9 9 9 9 9 9 9 9 9 9 9 8 8 8
9 9 9 9 9 9 9 9 9 9 9 9 9 9 9 9 9 9 9 9 9 9 9 9 9 10 10 9 9 9 9 9 9 9 9 8 8 8 8 8 8 8 8
8 8 8 9 9 8 8 8 8 8 8 8 8 8 8 8 8 8 9 9 9 9 9 9 9 9 9 9 9 9 9 9 9 8 8 8 8 8 8 8 8 7 7
7 8 8 8 8 8 8 8 8 8 8 8 8 8 8 7 7 8 8 8 8 8 8 9 9 9 9 9 9 9 9 8 8 8 8 8 8 7 7 7 7 7 7
7 7 7 8 7 7 7 7 7 8 8 8 8 8 8 8 7 7 7 8 8 8 8 8 8 8 9 9 8 8 8 8 8 8 8 7 7 7 7 7 7 7 7
6 7 7 7 7 7 7 7 7 7 7 7 7 7 7 7 7 7 7 7 7 7 8 8 8 8 8 8 8 8 8 8 8 7 7 7 7 7 7 7 7 7 6
6 6 6 6 7 7 7 7 7 7 7 7 7 7 7 7 7 7 7 6 7 7 7 7 8 8 8 8 8 7 7 7 7 7 7 7 7 7 7 7 7 6 6
5 5 5 6 6 6 6 6 6 6 6 6 6 6 6 7 7 7 7 6 6 6 7 7 7 7 7 7 7 7 7 7 7 7 7 7 6 6 6 6 6 6 6
5 5 5 5 5 5 5 5 6 6 6 6 6 6 6 6 6 6 6 6 5 5 6 6 7 7 7 7 7 7 7 7 7 7 7 6 6 6 6 6 6 6 6
4 4 4 4 5 5 5 5 5 5 5 5 5 5 6 6 6 6 6 6 5 5 5 5 6 6 6 6 7 7 7 7 7 7 6 6 6 6 6 6 6 6 6
3 3 3 4 4 4 4 4 4 5 5 5 5 5 5 5 5 5 6 5 5 5 4 5 5 6 6 6 6 6 6 6 6 6 6 6 6 6 5 5 5 5 5
3 3 3 3 3 4 4 4 4 4 4 4 5 5 5 5 5 5 5 5 5 5 4 5 5 5 5 5 6 6 6 6 6 6 6 6 6 5 5 5 5 5 5
2 2 3 3 3 3 3 3 3 4 4 4 4 4 4 4 5 5 5 5 5 4 4 4 4 4 4 5 5 5 5 5 5 5 5 5 5 5 5 5 5 4 4
2 2 2 2 2 2 3 3 3 3 3 3 3 4 4 4 4 4 4 4 4 4 4 4 4 4 4 4 4 4 4 4 5 5 5 5 5 5 4 4 4 4 4
1 1 1 2 2 2 2 2 2 2 3 3 3 3 3 3 3 4 4 4 3 3 3 3 3 3 3 3 3 4 4 4 4 4 4 4 4 4 4 4 4 4 3
1 1 1 1 1 1 2 2 2 2 2 2 3 3 3 3 3 3 3 3 3 3 3 3 3 3 3 3 3 3 3 3 3 3 3 4 4 4 4 4 3 3 3
0 0 0 0 1 1 1 1 1 1 2 2 2 2 2 2 3 3 2 2 2 2 2 2 2 2 2 2 2 2 2 2 2 3 3 3 3 3 3 3 3 3 3
-1 -0 -0 -0 0 0 1 1 1 1 1 1 2 2 2 2 2 2 2 2 2 2 2 2 2 2 2 2 2 2 2 2 2 2 2 3 3 3 3 3 3 3 2
-1 -1 -1 -1 -0 0 0 0 1 1 1 1 1 1 1 1 1 1 1 2 2 2 2 1 2 2 2 2 2 2 2 2 2 2 2 2 3 3 3 2 2 2 2
-1 -1 -1 -1 -1 -0 -0 -0 0 0 0 0 0 1 1 1 1 1 1 1 1 1 1 1 1 1 1 1 1 1 1 1 1 1 1 1 2 2 2 2 2 2 2
-2 -2 -2 -1 -1 -1 -1 -1 -0 -0 -0 -0 -0 -0 0 0 0 0 0 0 1 1 1 1 1 1 1 1 1 1 1 1 1 1 1 1 1 1 1 1 1 1 1
Wind_Speed
2 2 2 2 2 2 2 2 3 3 3 3 3 3 3 3 3 3 5 6 6 6 6 5 5 6 5 5 4 4 4 4 3 3 3 3 3 4 4 4 4 4 5
2 2 3 2 2 3 2 2 3 3 2 2 2 2 2 3 3 4 5 6 7 7 7 7 7 7 7 6 5 5 5 4 4 4 3 3 4 4 5 5 5 5 5
3 2 3 3 2 2 2 1 1 2 3 2 2 2 2 2 3 3 4 5 6 7 8 8 8 8 7 7 6 5 5 4 5 4 4 4 4 5 5 6 6 6 5
3 3 3 2 2 2 1 2 2 2 2 2 2 2 2 2 3 3 3 4 5 5 7 8 8 8 8 7 7 6 5 5 5 5 4 4 4 5 6 6 6 6 6
3 3 3 2 3 2 1 2 2 2 2 2 2 2 2 2 3 3 3 4 5 5 5 7 8 9 8 7 7 7 6 6 6 6 6 5 5 6 7 7 7 6 6
2 2 2 3 3 2 2 1 2 1 2 2 2 2 2 3 3 3 4 3 4 5 5 5 6 7 9 8 8 7 7 7 6 6 6 6 6 7 7 7 7 7 6
2 2 3 3 3 3 3 3 2 1 2 2 1 2 3 3 4 4 3 3 4 5 5 5 5 6 6 8 8 8 8 7 7 7 7 7 7 7 7 7 7 7 6
2 3 3 3 3 3 3 3 3 2 2 2 2 1 2 2 3 4 4 4 4 3 4 6 5 5 5 5 6 8 8 7 7 8 8 8 8 7 7 7 7 7 6
3 2 3 3 3 3 4 4 4 4 4 3 2 2 2 3 2 2 4 4 4 4 4 4 5 5 6 5 5 7 7 7 6 7 8 8 8 8 8 8 8 7 7
2 2 2 3 3 3 4 4 3 3 4 4 2 2 2 2 2 2 2 3 4 5 5 5 5 5 6 6 6 7 7 7 7 7 7 8 8 9 8 8 8 7 7
2 2 2 2 3 3 3 4 3 3 4 4 3 2 2 2 2 2 4 3 3 4 4 4 4 4 5 6 6 7 7 7 7 7 7 7 8 8 8 8 7 7 7
1 1 1 1 2 2 3 4 3 4 4 4 3 3 3 3 3 3 4 4 4 4 4 3 4 4 4 5 6 7 7 7 7 7 7 7 7 8 8 8 7 7 7
1 1 2 1 2 2 2 2 3 4 4 4 4 4 3 4 3 3 3 4 4 3 3 3 3 4 4 4 5 6 7 7 7 7 7 7 7 8 8 8 7 7 7
2 2 2 2 2 2 2 2 2 3 3 4 5 4 3 4 3 3 3 3 3 3 3 3 2 3 3 3 4 5 6 7 7 7 7 7 7 7 8 8 7 7 6
2 2 2 2 2 2 2 2 2 2 2 3 4 4 3 3 3 3 3 3 4 4 4 3 2 2 2 2 4 5 5 7 7 8 7 7 7 7 7 7 6 6 6
2 2 2 2 2 2 2 2 2 2 2 2 3 4 4 3 3 3 4 3 4 4 4 3 2 2 2 3 4 4 5 7 8 8 8 7 6 5 6 7 6 6 6
2 2 1 1 2 2 2 2 2 3 3 3 2 3 4 4 3 3 3 3 4 4 5 4 3 2 2 3 3 4 4 5 7 8 8 7 6 5 6 7 6 6 6
1 2 1 2 2 2 2 2 3 3 3 3 3 3 4 4 4 4 4 4 4 4 4 5 3 2 3 3 3 3 3 4 5 7 7 7 6 6 7 7 6 6 5
2 2 2 2 2 3 3 3 3 3 3 4 3 3 3 3 5 3 3 4 3 3 3 4 4 3 2 2 2 3 3 2 3 5 6 6 6 7 7 6 5 5 5
2 2 3 3 3 2 3 3 3 2 3 3 3 3 3 4 4 4 4 4 4 3 3 3 3 3 2 2 2 2 2 2 2 2 4 4 5 6 6 6 5 5 4
3 3 3 3 2 2 2 2 2 3 3 3 3 3 3 4 5 5 4 4 4 4 3 3 3 3 3 2 2 2 2 2 3 1 1 2 3 3 4 5 4 4 4
3 3 3 3 3 3 4 5 4 3 3 3 3 3 3 4 4 5 4 5 5 6 5 4 4 4 4 3 2 1 1 1 2 1 1 3 2 3 3 3 4 3 3
3 3 3 3 3 4 5 6 5 3 3 3 3 3 3 2 2 2 3 3 4 5 6 5 5 5 5 4 3 2 2 2 3 2 1 3 2 3 3 4 4 3 2
3 3 3 3 3 4 6 6 6 3 2 3 3 2 2 2 2 1 1 2 3 3 4 4 4 5 4 3 4 4 3 2 2 1 1 2 2 2 2 3 3 2 1
4 4 3 3 3 4 5 6 6 2 2 2 2 2 2 1 2 1 1 2 2 2 2 4 4 4 4 4 3 2 2 1 2 2 1 1 1 1 1 1 2 1 2
3 4 4 4 3 3 6 6 5 2 2 2 2 2 2 2 2 2 2 2 3 2 2 2 2 2 3 3 4 4 4 3 1 2 1 0 0 1 1 1 1 1 1
Wind_Direction
175 177 172 179 183 192 195 196 191 184 191 190 186 183 181 185 185 178 174 187 194 208 222 231 233 237 240 247 252 260 265 263 259 269 288 299 299 298 301 309 317 317 320
178 177 176 179 184 192 202 223 202 181 188 178 188 189 191 192 196 195 186 193 200 208 220 231 239 245 244 249 253 252 261 256 255 264 275 290 294 292 296 303 308 307 310
183 177 179 178 181 191 204 217 220 175 183 186 197 200 191 197 199 201 196 194 201 211 218 229 236 245 244 246 252 251 254 258 260 261 269 281 288 287 287 291 298 298 301
185 168 174 175 172 179 182 210 209 208 190 187 199 224 209 202 208 205 199 198 197 206 218 228 235 241 242 244 247 250 253 259 263 261 269 279 284 286 287 286 290 287 291
185 170 176 177 168 171 194 228 215 209 198 197 207 225 234 234 228 221 213 206 203 202 208 220 232 236 237 240 248 250 254 257 262 265 267 272 280 286 286 283 285 285 288
188 169 172 183 170 169 190 202 216 220 217 196 220 247 255 253 241 230 228 217 207 204 208 216 219 228 231 235 245 247 253 257 260 264 268 271 275 279 288 288 286 283 286
198 189 185 189 186 188 196 193 201 191 228 194 210 265 279 253 241 232 221 218 223 212 210 216 215 214 219 230 237 240 252 255 260 263 267 267 268 276 279 286 293 281 283
213 215 188 195 199 194 200 203 196 207 230 216 206 233 281 279 252 244 228 224 228 220 221 218 215 211 207 209 224 233 245 254 260 265 264 266 268 271 279 280 292 285 285
214 205 204 194 202 200 202 211 209 209 221 239 213 192 204 238 273 247 238 229 227 228 233 213 209 215 211 202 205 220 233 245 256 267 266 267 269 271 276 279 285 284 286
222 208 206 206 206 212 210 222 223 219 218 227 242 238 237 219 229 283 268 241 232 231 225 216 212 215 212 205 207 217 224 236 251 263 272 271 273 273 278 280 281 281 287
213 206 219 208 209 217 219 228 234 221 227 231 239 246 249 252 244 233 260 256 257 244 229 219 207 208 209 204 207 213 218 234 248 257 269 275 279 280 283 287 284 285 287
229 198 238 223 210 223 228 225 235 225 229 234 241 242 231 227 228 232 245 251 257 256 240 229 216 207 210 209 214 214 220 233 242 250 260 269 279 288 288 288 291 292 291
248 233 254 245 243 239 244 242 239 230 226 229 235 241 245 241 226 233 231 250 266 271 250 244 222 198 211 214 216 217 225 234 239 247 256 266 273 284 284 286 288 289 291
243 236 237 241 250 245 261 266 267 254 232 230 236 236 245 245 228 227 221 227 256 271 258 246 238 201 207 220 225 217 229 234 238 246 253 262 270 278 285 279 282 282 288
256 239 244 247 256 264 256 267 273 275 264 245 240 238 244 250 235 229 222 209 214 244 254 242 232 224 211 230 233 230 233 237 242 246 252 258 264 269 277 278 281 282 285
255 238 257 275 274 272 257 259 272 271 274 274 252 240 245 253 244 226 219 224 222 229 248 243 244 260 253 264 252 252 244 241 242 247 250 253 254 263 277 276 281 279 282
265 242 246 260 266 263 259 261 266 270 266 269 273 253 245 247 244 231 221 220 225 225 247 265 263 256 249 254 271 268 257 238 242 242 245 247 250 259 273 273 277 279 285
287 274 254 247 257 266 267 260 263 269 267 266 261 260 257 252 244 233 224 222 222 221 234 257 273 264 254 237 254 268 271 256 238 240 246 246 249 258 266 268 273 278 281
318 307 283 266 264 265 264 257 256 261 269 270 267 261 262 258 251 238 226 227 229 232 230 240 258 263 261 252 249 266 265 281 254 243 244 241 247 258 265 265 268 277 276
319 313 302 290 282 279 276 272 273 280 286 286 281 274 268 260 266 253 235 227 224 228 229 230 243 250 258 253 222 232 280 300 288 270 257 255 260 263 259 260 262 270 275
330 321 314 307 298 292 284 286 284 287 282 282 283 275 266 262 266 263 251 228 219 223 225 228 233 249 254 236 224 211 258 302 294 273 247 273 283 265 249 251 253 263 274
337 331 317 315 315 309 300 301 296 281 275 270 274 273 269 258 268 267 268 256 229 218 220 225 237 236 236 231 234 228 247 290 287 271 265 273 274 261 259 247 251 257 264
328 326 321 324 326 312 306 306 306 296 281 274 270 272 281 275 279 257 270 282 259 237 225 219 224 231 229 222 216 232 249 248 261 250 283 261 256 261 279 272 264 251 263
322 320 318 317 318 314 320 317 321 312 300 288 284 273 273 282 263 270 267 266 262 248 233 225 220 230 229 212 206 224 236 256 298 270 222 243 251 271 295 272 246 226 288
328 322 314 314 316 312 324 326 323 305 306 305 299 298 280 261 283 299 267 261 273 272 256 244 239 245 240 235 223 216 200 190 280 281 254 210 249 314 291 256 251 251 306
320 320 320 320 318 319 324 327 329 320 319 314 313 312 295 280 277 276 250 239 258 263 269 270 251 250 239 230 217 204 196 197 222 263 259 228 197 34 325 292 307 301 308
Height
1493 1494 1495 1496 1497 1499 1499 1500 1501 1501 1502 1504 1505 1505 1506 1507 1508 1509 1510 1511 1511 1512 1513 1513 1513 1514 1514 1514 1514 1514 1515 1515 1515 1514 1514 1514 1513 1513 1512 1512 1511 1510 1509
1490 1491 1492 1493 1495 1495 1496 1497 1498 1498 1499 1500 1501 1502 1503 1504 1504 1505 1506 1507 1508 1509 1509 1510 1511 1511 1511 1511 1512 1512 1512 1512 1512 1512 1512 1511 1511 1510 1509 1509 1508 1507 1506
1486 1488 1489 1490 1491 1492 1493 1494 1495 1495 1495 1497 1498 1499 1500 1501 1501 1502 1503 1503 1504 1505 1506 1506 1507 1508 1508 1509 1509 1509 1509 1509 1509 1509 1509 1509 1508 1508 1507 1506 1505 1504 1503
1483 1484 1485 1487 1488 1489 1490 1491 1491 1492 1492 1493 1494 1495 1496 1497 1497 1498 1499 1500 1500 1501 1502 1502 1503 1504 1505 1505 1506 1506 1506 1506 1506 1506 1506 1506 1505 1505 1504 1503 1502 1501 1500
1479 1480 1481 1483 1484 1485 1486 1487 1488 1488 1488 1489 1490 1491 1492 1493 1493 1494 1495 1495 1496 1496 1497 1498 1500 1500 1501 1502 1502 1502 1503 1503 1503 1503 1503 1502 1502 1501 1501 1500 1499 1498 1497
1475 1476 1478 1479 1481 1482 1483 1484 1484 1485 1486 1485 1486 1487 1488 1489 1489 1490 1491 1491 1492 1493 1494 1494 1496 1496 1497 1497 1498 1498 1499 1499 1499 1499 1499 1499 1498 1498 1497 1496 1495 1494 1493
1472 1473 1474 1475 1477 1478 1479 1480 1481 1481 1482 1482 1483 1483 1483 1484 1485 1486 1487 1487 1488 1489 1489 1490 1491 1492 1493 1493 1494 1495 1495 1495 1495 1495 1495 1495 1494 1494 1493 1492 1491 1490 1489
1468 1470 1470 1471 1472 1474 1475 1476 1477 1478 1479 1479 1479 1479 1479 1481 1481 1482 1483 1483 1484 1485 1485 1486 1487 1488 1488 1489 1490 1490 1491 1490 1490 1490 1490 1490 1490 1490 1489 1488 1487 1487 1485
1465 1466 1466 1467 1468 1470 1471 1472 1473 1474 1475 1476 1476 1477 1476 1476 1476 1477 1478 1479 1480 1480 1481 1482 1483 1483 1484 1485 1485 1486 1486 1486 1486 1486 1486 1486 1486 1485 1485 1484 1484 1483 1482
1461 1462 1462 1463 1464 1466 1467 1468 1470 1471 1472 1471 1472 1472 1474 1473 1474 1472 1473 1474 1475 1476 1477 1478 1478 1479 1480 1480 1481 1481 1481 1482 1482 1482 1481 1481 1481 1481 1481 1480 1480 1479 1478
1457 1458 1458 1459 1460 1461 1463 1464 1465 1467 1468 1467 1468 1468 1468 1469 1469 1469 1469 1470 1471 1471 1472 1473 1474 1475 1475 1476 1476 1476 1477 1477 1477 1477 1477 1477 1477 1477 1476 1476 1475 1474 1474
1453 1453 1454 1455 1456 1457 1459 1460 1461 1462 1463 1463 1464 1465 1465 1465 1465 1465 1465 1465 1466 1466 1468 1468 1469 1469 1470 1471 1471 1472 1472 1472 1473 1473 1473 1473 1473 1472 1472 1471 1470 1470 1469
1449 1450 1450 1451 1452 1453 1454 1455 1456 1457 1458 1459 1459 1460 1461 1461 1461 1462 1462 1461 1461 1462 1463 1463 1464 1465 1466 1466 1466 1467 1468 1468 1468 1468 1469 1468 1468 1468 1467 1467 1466 1465 1465
1446 1447 1447 1448 1448 1449 1450 1451 1452 1453 1453 1454 1455 1455 1456 1456 1457 1458 1458 1458 1458 1458 1458 1458 1459 1460 1461 1461 1462 1463 1463 1463 1464 1464 1464 1464 1463 1463 1462 1463 1462 1461 1460
1444 1444 1445 1444 1445 1445 1446 1447 1447 1448 1449 1450 1450 1450 1451 1451 1452 1453 1454 1454 1455 1453 1453 1453 1454 1455 1456 1457 1457 1458 1458 1459 1459 1459 1459 1459 1459 1458 1458 1458 1457 1457 1456
1441 1441 1441 1441 1441 1441 1442 1443 1443 1444 1444 1445 1445 1445 1446 1447 1448 1448 1449 1449 1450 1450 1449 1448 1449 1450 1451 1452 1452 1453 1453 1454 1454 1455 1455 1454 1454 1454 1454 1454 1453 1452 1452
1438 1438 1438 1438 1438 1438 1439 1439 1439 1440 1440 1440 1441 1441 1441 1442 1443 1443 1444 1445 1445 1446 1445 1444 1445 1446 1446 1447 1447 1448 1448 1449 1449 1450 1450 1450 1449 1449 1450 1450 1449 1448 1448
1435 1435 1435 1435 1435 1435 1435 1435 1436 1436 1436 1436 1436 1437 1436 1437 1438 1439 1439 1440 1440 1441 1441 1440 1440 1441 1441 1442 1442 1443 1443 1444 1445 1445 1445 1445 1445 1445 1445 1445 1445 1444 1444
1432 1432 1432 1432 1432 1432 1432 1432 1433 1433 1433 1432 1432 1432 1432 1433 1433 1433 1434 1435 1436 1436 1437 1436 1436 1437 1437 1438 1438 1439 1439 1439 1440 1441 1441 1441 1441 1441 1441 1441 1441 1441 1440
1430 1429 1429 1429 1429 1429 1429 1429 1429 1429 1428 1428 1428 1428 1428 1428 1428 1428 1429 1430 1431 1432 1432 1432 1432 1433 1433 1434 1435 1434 1435 1435 1436 1437 1437 1437 1437 1437 1437 1437 1437 1437 1436
1427 1427 1427 1427 1427 1426 1426 1426 1426 1425 1425 1424 1424 1424 1424 1424 1424 1424 1424 1425 1426 1427 1427 1427 1428 1429 1429 1430 1430 1431 1431 1431 1432 1432 1432 1433 1433 1433 1433 1433 1433 1433 1432
1425 1425 1425 1424 1424 1423 1423 1423 1422 1421 1421 1420 1420 1419 1419 1419 1419 1420 1420 1421 1422 1422 1423 1423 1423 1424 1425 1426 1427 1427 1427 1427 1427 1429 1428 1429 1429 1429 1429 1429 1429 1429 1428
1423 1423 1422 1422 1421 1420 1420 1420 1419 1418 1417 1416 1416 1416 1415 1415 1415 1416 1416 1416 1417 1418 1419 1420 1419 1420 1421 1422 1423 1423 1424 1424 1424 1424 1425 1424 1426 1426 1426 1426 1426 1425 1425
1421 1420 1420 1419 1418 1417 1418 1417 1416 1414 1413 1413 1413 1412 1412 1412 1412 1413 1413 1413 1413 1414 1415 1415 1416 1417 1418 1419 1419 1420 1420 1421 1422 1422 1422 1421 1421 1422 1422 1423 1423 1422 1422
1419 1418 1418 1417 1415 1415 1415 1414 1413 1411 1410 1410 1409 1409 1409 1409 1410 1410 1410 1410 1410 1410 1411 1412 1413 1413 1414 1415 1415 1416 1417 1417 1417 1418 1419 1418 1417 1418 1419 1419 1420 1419 1419
1417 1416 1416 1415 1413 1412 1412 1411 1410 1408 1407 1407 1406 1406 1406 1407 1407 1407 1407 1407 1407 1407 1407 1408 1409 1409 1410 1411 1412 1412 1413 1413 1414 1415 1415 1415 1415 1415 1415 1416 1417 1417 1417